Time,TemperatureF,DewpointF,PressureIn,WindDirection,WindDirectionDegrees,WindSpeedMPH,WindSpeedGustMPH,Humidity,HourlyPrecipIn,Conditions,Clouds,dailyrainin,SoftwareType,DateUTC
2013-04-30 00:00:00,70.4,67.0,29.99,NNE,29,0.0,0.0,89,0.00,,,0.00,Wunderground v.1.15,2013-04-30 04:00:00,
2013-04-30 00:05:00,71.0,66.6,29.99,NNE,29,1.0,6.0,86,0.00,,,0.00,Wunderground v.1.15,2013-04-30 04:05:00,
2013-04-30 00:10:00,71.2,66.5,29.99,North,8,1.0,1.0,85,0.00,,,0.00,Wunderground v.1.15,2013-04-30 04:10:00,
2013-04-30 00:19:00,70.6,65.9,29.99,NNE,30,4.0,4.0,85,0.00,,,0.00,Wunderground v.1.15,2013-04-30 04:19:00,
2013-04-30 00:25:00,70.3,65.6,29.99,NE,38,3.0,4.0,85,0.00,,,0.00,Wunderground v.1.15,2013-04-30 04:25:00,
2013-04-30 00:35:00,69.7,65.3,29.99,NE,54,0.0,1.0,86,0.00,,,0.00,Wunderground v.1.15,2013-04-30 04:35:00,
2013-04-30 00:45:00,69.4,65.0,29.98,NNE,23,0.0,0.0,86,0.00,,,0.00,Wunderground v.1.15,2013-04-30 04:45:00,
2013-04-30 00:55:00,69.3,64.9,29.98,NNE,29,0.0,0.0,86,0.00,,,0.00,Wunderground v.1.15,2013-04-30 04:55:00,
2013-04-30 01:05:00,69.0,64.6,29.98,NE,50,0.0,6.0,86,0.00,,,0.00,Wunderground v.1.15,2013-04-30 05:05:00,
2013-04-30 01:10:00,68.8,64.4,29.98,NNE,30,0.0,6.0,86,0.00,,,0.00,Wunderground v.1.15,2013-04-30 05:10:00,
2013-04-30 01:20:00,68.4,64.0,29.97,NE,44,0.0,6.0,86,0.00,,,0.00,Wunderground v.1.15,2013-04-30 05:20:00,
2013-04-30 01:30:00,68.2,64.2,29.97,North,8,0.0,0.0,87,0.00,,,0.00,Wunderground v.1.15,2013-04-30 05:30:00,
2013-04-30 01:35:00,68.1,64.1,29.97,NNE,23,0.0,0.0,87,0.00,,,0.00,Wunderground v.1.15,2013-04-30 05:35:00,
2013-04-30 01:40:00,67.9,63.9,29.97,NNE,23,0.0,0.0,87,0.00,,,0.00,Wunderground v.1.15,2013-04-30 05:40:00,
2013-04-30 01:50:00,67.5,63.8,29.97,NNE,23,0.0,0.0,88,0.00,,,0.00,Wunderground v.1.15,2013-04-30 05:50:00,
2013-04-30 01:55:00,67.1,63.4,29.97,East,95,0.0,0.0,88,0.00,,,0.00,Wunderground v.1.15,2013-04-30 05:55:00,
2013-04-30 02:05:00,67.0,63.6,29.97,East,95,0.0,0.0,89,0.00,,,0.00,Wunderground v.1.15,2013-04-30 06:05:00,
2013-04-30 02:14:00,66.8,63.5,29.97,East,95,0.0,0.0,89,0.00,,,0.00,Wunderground v.1.15,2013-04-30 06:14:00,
2013-04-30 02:20:00,66.6,63.3,29.96,East,95,0.0,0.0,89,0.00,,,0.00,Wunderground v.1.15,2013-04-30 06:20:00,
2013-04-30 02:30:00,66.3,63.3,29.97,East,95,0.0,0.0,90,0.00,,,0.00,Wunderground v.1.15,2013-04-30 06:30:00,
2013-04-30 02:40:00,65.8,62.8,29.97,East,95,0.0,0.0,90,0.00,,,0.00,Wunderground v.1.15,2013-04-30 06:40:00,
2013-04-30 02:50:00,65.5,62.8,29.96,East,95,0.0,0.0,91,0.00,,,0.00,Wunderground v.1.15,2013-04-30 06:50:00,
2013-04-30 03:00:00,65.4,62.7,29.96,East,95,0.0,0.0,91,0.00,,,0.00,Wunderground v.1.15,2013-04-30 07:00:00,
2013-04-30 03:05:00,65.2,62.5,29.96,East,94,0.0,0.0,91,0.00,,,0.00,Wunderground v.1.15,2013-04-30 07:05:00,
2013-04-30 03:15:00,65.3,62.9,29.96,East,95,0.0,0.0,92,0.00,,,0.00,Wunderground v.1.15,2013-04-30 07:15:00,
2013-04-30 03:25:00,65.1,62.7,29.96,East,95,0.0,0.0,92,0.00,,,0.00,Wunderground v.1.15,2013-04-30 07:25:00,
2013-04-30 03:30:00,65.1,62.7,29.96,East,95,0.0,0.0,92,0.00,,,0.00,Wunderground v.1.15,2013-04-30 07:30:00,
2013-04-30 03:40:00,65.6,63.5,29.96,SE,144,0.0,0.0,93,0.00,,,0.00,Wunderground v.1.15,2013-04-30 07:40:00,
2013-04-30 03:50:00,66.0,64.2,29.95,ESE,118,0.0,0.0,94,0.00,,,0.00,Wunderground v.1.15,2013-04-30 07:50:00,
2013-04-30 04:00:00,66.0,63.9,29.95,ESE,118,0.0,0.0,93,0.00,,,0.00,Wunderground v.1.15,2013-04-30 08:00:00,
2013-04-30 04:09:00,66.0,64.2,29.95,ESE,119,0.0,0.0,94,0.00,,,0.00,Wunderground v.1.15,2013-04-30 08:09:00,
2013-04-30 04:15:00,66.0,64.2,29.95,ESE,118,0.0,0.0,94,0.00,,,0.00,Wunderground v.1.15,2013-04-30 08:15:00,
2013-04-30 04:25:00,65.8,64.0,29.96,ESE,119,0.0,0.0,94,0.00,,,0.00,Wunderground v.1.15,2013-04-30 08:25:00,
2013-04-30 04:35:00,65.7,63.9,29.96,ESE,118,0.0,0.0,94,0.00,,,0.00,Wunderground v.1.15,2013-04-30 08:35:00,
2013-04-30 04:45:00,66.0,64.5,29.96,ESE,111,0.0,0.0,95,0.00,,,0.00,Wunderground v.1.15,2013-04-30 08:45:00,
2013-04-30 04:55:00,66.8,65.3,29.96,NE,56,0.0,0.0,95,0.00,,,0.00,Wunderground v.1.15,2013-04-30 08:55:00,
2013-04-30 05:05:00,66.9,65.4,29.96,East,94,0.0,0.0,95,0.00,,,0.00,Wunderground v.1.15,2013-04-30 09:05:00,
2013-04-30 05:15:00,66.8,65.3,29.96,ESE,115,0.0,0.0,95,0.00,,,0.00,Wunderground v.1.15,2013-04-30 09:15:00,
2013-04-30 05:25:00,67.0,65.8,29.96,ESE,114,0.0,0.0,96,0.00,,,0.00,Wunderground v.1.15,2013-04-30 09:25:00,
2013-04-30 05:35:00,67.0,65.8,29.97,ESE,118,0.0,0.0,96,0.00,,,0.00,Wunderground v.1.15,2013-04-30 09:35:00,
2013-04-30 05:45:00,67.0,65.8,29.98,ESE,118,0.0,0.0,96,0.00,,,0.00,Wunderground v.1.15,2013-04-30 09:45:00,
2013-04-30 05:55:00,67.4,66.2,29.98,SE,142,0.0,0.0,96,0.00,,,0.00,Wunderground v.1.15,2013-04-30 09:55:00,
2013-04-30 06:05:00,67.7,66.5,29.99,SW,217,0.0,0.0,96,0.00,,,0.01,Wunderground v.1.15,2013-04-30 10:05:00,
2013-04-30 06:10:00,67.9,66.7,29.99,SW,224,0.0,0.0,96,0.08,,,0.02,Wunderground v.1.15,2013-04-30 10:10:00,
2013-04-30 06:20:00,68.1,66.9,30.00,SSE,160,0.0,0.0,96,0.10,,,0.03,Wunderground v.1.15,2013-04-30 10:20:00,
2013-04-30 06:29:00,68.3,67.1,30.00,SSE,154,0.0,0.0,96,0.31,,,0.07,Wunderground v.1.15,2013-04-30 10:29:00,
2013-04-30 06:35:00,68.4,67.2,29.99,SSE,153,0.0,0.0,96,0.26,,,0.09,Wunderground v.1.15,2013-04-30 10:35:00,
2013-04-30 06:45:00,68.4,67.2,29.99,SSE,148,1.0,1.0,96,0.09,,,0.11,Wunderground v.1.15,2013-04-30 10:45:00,
2013-04-30 06:55:00,68.5,67.3,29.99,SSE,151,0.0,4.0,96,0.07,,,0.12,Wunderground v.1.15,2013-04-30 10:55:00,
2013-04-30 07:00:00,68.6,67.4,29.99,SSE,148,1.0,1.0,96,0.07,,,0.12,Wunderground v.1.15,2013-04-30 11:00:00,
2013-04-30 07:10:00,68.6,67.4,29.99,SSE,149,0.0,0.0,96,0.04,,,0.12,Wunderground v.1.15,2013-04-30 11:10:00,
2013-04-30 07:20:00,68.6,67.4,30.00,SSW,200,0.0,0.0,96,0.00,,,0.12,Wunderground v.1.15,2013-04-30 11:20:00,
2013-04-30 07:30:00,68.6,67.4,30.00,SSE,165,0.0,0.0,96,0.00,,,0.12,Wunderground v.1.15,2013-04-30 11:30:00,
2013-04-30 07:40:00,68.5,67.3,30.00,SW,214,0.0,0.0,96,0.00,,,0.12,Wunderground v.1.15,2013-04-30 11:40:00,
2013-04-30 07:50:00,68.6,67.4,30.00,SE,139,0.0,1.0,96,0.00,,,0.12,Wunderground v.1.15,2013-04-30 11:50:00,
2013-04-30 08:00:00,68.8,67.6,29.99,SW,219,0.0,0.0,96,0.00,,,0.12,Wunderground v.1.15,2013-04-30 12:00:00,
2013-04-30 08:10:00,69.0,67.8,30.00,WSW,240,1.0,1.0,96,0.00,,,0.12,Wunderground v.1.15,2013-04-30 12:10:00,
2013-04-30 08:20:00,69.2,68.0,30.00,SW,215,0.0,6.0,96,0.00,,,0.12,Wunderground v.1.15,2013-04-30 12:20:00,
2013-04-30 08:30:00,69.1,67.6,30.00,SSW,198,0.0,0.0,95,0.00,,,0.12,Wunderground v.1.15,2013-04-30 12:30:00,
2013-04-30 08:40:00,69.2,67.7,30.00,SSE,152,1.0,1.0,95,0.00,,,0.12,Wunderground v.1.15,2013-04-30 12:40:00,
2013-04-30 08:50:00,69.4,67.9,30.00,WSW,255,0.0,0.0,95,0.00,,,0.12,Wunderground v.1.15,2013-04-30 12:50:00,
2013-04-30 09:00:00,69.8,68.3,30.01,SE,146,1.0,1.0,95,0.00,,,0.12,Wunderground v.1.15,2013-04-30 13:00:00,
2013-04-30 09:10:00,70.5,68.7,30.00,SSW,192,0.0,5.0,94,0.00,,,0.12,Wunderground v.1.15,2013-04-30 13:10:00,
2013-04-30 09:20:00,71.0,68.6,30.01,WSW,257,0.0,5.0,92,0.00,,,0.12,Wunderground v.1.15,2013-04-30 13:20:00,
2013-04-30 09:30:00,71.5,68.7,30.01,SSW,196,1.0,1.0,91,0.00,,,0.12,Wunderground v.1.15,2013-04-30 13:30:00,
2013-04-30 09:40:00,72.0,68.9,30.00,SW,226,1.0,1.0,90,0.00,,,0.12,Wunderground v.1.15,2013-04-30 13:40:00,
2013-04-30 09:50:00,73.1,69.3,30.00,SSW,212,0.0,4.0,88,0.00,,,0.12,Wunderground v.1.15,2013-04-30 13:50:00,
2013-04-30 10:00:00,73.9,69.4,30.01,West,274,2.0,2.0,86,0.00,,,0.12,Wunderground v.1.15,2013-04-30 14:00:00,
2013-04-30 10:10:00,74.4,67.8,30.01,SSW,204,1.0,1.0,80,0.00,,,0.12,Wunderground v.1.15,2013-04-30 14:10:00,
2013-04-30 10:20:00,75.0,68.4,30.01,SSE,153,1.0,1.0,80,0.00,,,0.12,Wunderground v.1.15,2013-04-30 14:20:00,
2013-04-30 10:25:00,75.6,68.6,30.01,SSE,148,0.0,1.0,79,0.00,,,0.12,Wunderground v.1.15,2013-04-30 14:25:00,
2013-04-30 10:35:00,77.5,68.6,30.01,SW,226,2.0,3.0,74,0.00,,,0.12,Wunderground v.1.15,2013-04-30 14:35:00,
2013-04-30 10:44:00,79.0,67.5,30.01,SE,142,1.0,2.0,68,0.00,,,0.12,Wunderground v.1.15,2013-04-30 14:44:00,
2013-04-30 10:50:00,79.6,65.9,30.01,SW,216,1.0,1.0,63,0.00,,,0.12,Wunderground v.1.15,2013-04-30 14:50:00,
2013-04-30 11:00:00,80.7,67.4,30.01,ESE,108,0.0,0.0,64,0.00,,,0.12,Wunderground v.1.15,2013-04-30 15:00:00,
2013-04-30 11:10:00,81.9,66.6,30.00,SW,234,0.0,6.0,60,0.00,,,0.12,Wunderground v.1.15,2013-04-30 15:10:00,
2013-04-30 11:20:00,83.7,67.4,30.01,SSW,204,0.0,6.0,58,0.00,,,0.12,Wunderground v.1.15,2013-04-30 15:20:00,
2013-04-30 11:30:00,84.5,67.1,30.01,South,172,1.0,1.0,56,0.00,,,0.12,Wunderground v.1.15,2013-04-30 15:30:00,
2013-04-30 11:40:00,85.6,67.6,30.01,SSW,208,0.0,0.0,55,0.00,,,0.12,Wunderground v.1.15,2013-04-30 15:40:00,
2013-04-30 11:50:00,85.8,68.8,30.01,SSE,148,0.0,0.0,57,0.00,,,0.12,Wunderground v.1.15,2013-04-30 15:50:00,
2013-04-30 11:55:00,85.9,68.4,30.01,East,82,0.0,0.0,56,0.00,,,0.12,Wunderground v.1.15,2013-04-30 15:55:00,
2013-04-30 12:05:00,86.3,67.7,30.00,East,90,0.0,6.0,54,0.00,,,0.12,Wunderground v.1.15,2013-04-30 16:05:00,
2013-04-30 12:15:00,85.2,67.7,30.00,ENE,68,0.0,6.0,56,0.00,,,0.12,Wunderground v.1.15,2013-04-30 16:15:00,
2013-04-30 12:25:00,86.8,67.1,30.00,WSW,248,0.0,6.0,52,0.00,,,0.12,Wunderground v.1.15,2013-04-30 16:25:00,
2013-04-30 12:35:00,88.3,66.1,29.99,WSW,239,0.0,0.0,48,0.00,,,0.12,Wunderground v.1.15,2013-04-30 16:35:00,
2013-04-30 12:45:00,88.5,65.7,29.99,WSW,252,0.0,0.0,47,0.00,,,0.12,Wunderground v.1.15,2013-04-30 16:45:00,
2013-04-30 12:55:00,87.9,65.2,29.98,East,87,0.0,0.0,47,0.00,,,0.12,Wunderground v.1.15,2013-04-30 16:55:00,
2013-04-30 13:05:00,88.3,66.7,29.97,East,98,0.0,4.0,49,0.00,,,0.12,Wunderground v.1.15,2013-04-30 17:05:00,
2013-04-30 13:15:00,88.9,65.4,29.97,SSW,195,0.0,4.0,46,0.00,,,0.12,Wunderground v.1.15,2013-04-30 17:15:00,
2013-04-30 13:20:00,89.3,66.4,29.97,SE,142,0.0,4.0,47,0.00,,,0.12,Wunderground v.1.15,2013-04-30 17:20:00,
2013-04-30 13:30:00,87.2,66.9,29.96,ENE,77,0.0,0.0,51,0.00,,,0.12,Wunderground v.1.15,2013-04-30 17:30:00,
2013-04-30 13:40:00,87.4,66.5,29.96,SSE,149,0.0,0.0,50,0.00,,,0.12,Wunderground v.1.15,2013-04-30 17:40:00,
2013-04-30 13:45:00,87.9,66.4,29.96,SSE,155,0.0,0.0,49,0.00,,,0.12,Wunderground v.1.15,2013-04-30 17:45:00,
2013-04-30 13:55:00,88.7,65.9,29.96,WSW,252,0.0,0.0,47,0.00,,,0.12,Wunderground v.1.15,2013-04-30 17:55:00,
2013-04-30 14:04:00,89.7,66.2,29.96,SSE,148,0.0,0.0,46,0.00,,,0.12,Wunderground v.1.15,2013-04-30 18:04:00,
2013-04-30 14:10:00,89.3,65.8,29.96,WSW,238,0.0,0.0,46,0.00,,,0.12,Wunderground v.1.15,2013-04-30 18:10:00,
2013-04-30 14:20:00,89.1,65.0,29.96,ENE,75,1.0,2.0,45,0.00,,,0.12,Wunderground v.1.15,2013-04-30 18:20:00,
2013-04-30 14:30:00,87.4,64.1,29.96,WSW,242,1.0,1.0,46,0.00,,,0.12,Wunderground v.1.15,2013-04-30 18:30:00,
2013-04-30 14:40:00,87.2,65.1,29.96,SE,134,1.0,1.0,48,0.00,,,0.12,Wunderground v.1.15,2013-04-30 18:40:00,
2013-04-30 14:50:00,87.2,64.5,29.95,East,90,0.0,0.0,47,0.00,,,0.12,Wunderground v.1.15,2013-04-30 18:50:00,
2013-04-30 15:00:00,87.8,64.4,29.95,NNW,332,0.0,0.0,46,0.00,,,0.12,Wunderground v.1.15,2013-04-30 19:00:00,
2013-04-30 15:09:00,87.9,65.8,29.95,ESE,121,0.0,3.0,48,0.00,,,0.12,Wunderground v.1.15,2013-04-30 19:09:00,
2013-04-30 15:15:00,87.2,66.3,29.94,East,84,0.0,3.0,50,0.00,,,0.12,Wunderground v.1.15,2013-04-30 19:15:00,
2013-04-30 15:25:00,86.0,64.0,29.94,NE,49,0.0,3.0,48,0.00,,,0.12,Wunderground v.1.15,2013-04-30 19:25:00,
2013-04-30 15:35:00,86.2,65.4,29.94,SSW,208,1.0,1.0,50,0.00,,,0.12,Wunderground v.1.15,2013-04-30 19:35:00,
2013-04-30 15:45:00,88.3,66.7,29.93,North,353,0.0,1.0,49,0.00,,,0.12,Wunderground v.1.15,2013-04-30 19:45:00,
2013-04-30 15:54:00,89.3,67.6,29.92,NE,49,0.0,7.0,49,0.00,,,0.12,Wunderground v.1.15,2013-04-30 19:54:00,
2013-04-30 16:00:00,89.6,66.7,29.92,NW,321,2.0,2.0,47,0.00,,,0.12,Wunderground v.1.15,2013-04-30 20:00:00,
2013-04-30 16:10:00,88.5,66.3,29.92,NNE,30,1.0,5.0,48,0.00,,,0.12,Wunderground v.1.15,2013-04-30 20:10:00,
2013-04-30 16:20:00,87.3,66.4,29.92,ESE,121,0.0,5.0,50,0.00,,,0.12,Wunderground v.1.15,2013-04-30 20:20:00,
2013-04-30 16:30:00,88.1,66.5,29.92,East,96,2.0,3.0,49,0.00,,,0.12,Wunderground v.1.15,2013-04-30 20:30:00,
2013-04-30 16:40:00,87.4,65.9,29.92,East,91,1.0,1.0,49,0.00,,,0.12,Wunderground v.1.15,2013-04-30 20:40:00,
2013-04-30 16:45:00,86.9,64.8,29.92,ENE,65,0.0,1.0,48,0.00,,,0.12,Wunderground v.1.15,2013-04-30 20:45:00,
2013-04-30 16:55:00,86.9,65.4,29.92,SE,142,0.0,4.0,49,0.00,,,0.12,Wunderground v.1.15,2013-04-30 20:55:00,
2013-04-30 17:04:00,86.6,65.7,29.92,ESE,106,1.0,8.0,50,0.00,,,0.12,Wunderground v.1.15,2013-04-30 21:04:00,
2013-04-30 17:10:00,86.7,64.7,29.92,SE,125,0.0,8.0,48,0.00,,,0.12,Wunderground v.1.15,2013-04-30 21:10:00,
2013-04-30 17:20:00,86.3,64.3,29.92,ENE,72,0.0,8.0,48,0.00,,,0.12,Wunderground v.1.15,2013-04-30 21:20:00,
2013-04-30 17:30:00,86.5,65.1,29.92,East,94,0.0,0.0,49,0.00,,,0.12,Wunderground v.1.15,2013-04-30 21:30:00,
2013-04-30 17:40:00,87.0,64.3,29.93,ESE,114,1.0,1.0,47,0.00,,,0.12,Wunderground v.1.15,2013-04-30 21:40:00,
2013-04-30 17:49:00,88.0,64.6,29.93,NE,56,0.0,1.0,46,0.00,,,0.12,Wunderground v.1.15,2013-04-30 21:49:00,
2013-04-30 17:55:00,87.3,65.2,29.93,ESE,117,2.0,2.0,48,0.00,,,0.12,Wunderground v.1.15,2013-04-30 21:55:00,
2013-04-30 18:05:00,86.0,64.0,29.93,ENE,72,0.0,4.0,48,0.00,,,0.12,Wunderground v.1.15,2013-04-30 22:05:00,
2013-04-30 18:10:00,85.3,63.4,29.93,East,87,0.0,4.0,48,0.00,,,0.12,Wunderground v.1.15,2013-04-30 22:10:00,
2013-04-30 18:15:00,84.7,64.0,29.93,ENE,74,0.0,4.0,50,0.00,,,0.12,Wunderground v.1.15,2013-04-30 22:15:00,
2013-04-30 18:25:00,83.9,63.8,29.93,East,90,0.0,4.0,51,0.00,,,0.12,Wunderground v.1.15,2013-04-30 22:25:00,
2013-04-30 18:35:00,83.3,64.4,29.94,SE,126,0.0,0.0,53,0.00,,,0.12,Wunderground v.1.15,2013-04-30 22:35:00,
2013-04-30 18:45:00,83.0,64.6,29.93,ESE,109,0.0,0.0,54,0.00,,,0.12,Wunderground v.1.15,2013-04-30 22:45:00,
2013-04-30 18:55:00,82.8,64.5,29.94,NW,322,0.0,0.0,54,0.00,,,0.12,Wunderground v.1.15,2013-04-30 22:55:00,
2013-04-30 19:05:00,78.8,66.0,29.94,ENE,57,4.0,7.0,65,0.00,,,0.12,Wunderground v.1.15,2013-04-30 23:05:00,
2013-04-30 19:15:00,76.2,66.1,29.95,NNE,20,5.0,15.0,71,0.00,,,0.12,Wunderground v.1.15,2013-04-30 23:15:00,
2013-04-30 19:24:00,72.6,65.7,29.96,NNE,32,11.0,12.0,79,0.00,,,0.12,Wunderground v.1.15,2013-04-30 23:24:00,
2013-04-30 19:30:00,71.2,65.4,29.96,NNE,15,10.0,14.0,82,0.00,,,0.12,Wunderground v.1.15,2013-04-30 23:30:00,
2013-04-30 19:40:00,70.6,65.9,29.98,East,89,8.0,8.0,85,0.00,,,0.12,Wunderground v.1.15,2013-04-30 23:40:00,
2013-04-30 19:50:00,68.9,64.9,29.99,East,89,7.0,9.0,87,0.00,,,0.12,Wunderground v.1.15,2013-04-30 23:50:00,
2013-04-30 20:00:00,68.7,65.0,30.00,ESE,114,7.0,7.0,88,0.00,,,0.12,Wunderground v.1.15,2013-05-01 00:00:00,
2013-04-30 20:09:00,68.5,64.5,30.01,East,99,5.0,11.0,87,0.00,,,0.12,Wunderground v.1.15,2013-05-01 00:09:00,
2013-04-30 20:15:00,68.6,64.9,30.01,East,87,6.0,11.0,88,0.00,,,0.12,Wunderground v.1.15,2013-05-01 00:15:00,
2013-04-30 20:25:00,68.1,64.7,30.01,NE,49,6.0,11.0,89,0.00,,,0.13,Wunderground v.1.15,2013-05-01 00:25:00,
2013-04-30 20:35:00,67.8,64.4,30.01,East,94,8.0,12.0,89,0.00,,,0.13,Wunderground v.1.15,2013-05-01 00:35:00,
2013-04-30 20:40:00,67.9,65.2,30.01,ESE,119,8.0,8.0,91,0.00,,,0.13,Wunderground v.1.15,2013-05-01 00:40:00,
2013-04-30 20:50:00,68.4,66.0,30.02,East,99,5.0,5.0,92,0.00,,,0.13,Wunderground v.1.15,2013-05-01 00:50:00,
2013-04-30 21:00:00,68.9,66.5,30.03,SE,130,2.0,2.0,92,0.00,,,0.13,Wunderground v.1.15,2013-05-01 01:00:00,
2013-04-30 21:05:00,68.8,66.4,30.03,SSE,150,2.0,7.0,92,0.00,,,0.13,Wunderground v.1.15,2013-05-01 01:05:00,
2013-04-30 21:15:00,69.0,66.6,30.03,SE,141,4.0,14.0,92,0.00,,,0.13,Wunderground v.1.15,2013-05-01 01:15:00,
2013-04-30 21:25:00,69.1,67.0,30.03,SE,133,3.0,3.0,93,0.00,,,0.13,Wunderground v.1.15,2013-05-01 01:25:00,
2013-04-30 21:35:00,69.2,67.1,30.02,SE,138,3.0,3.0,93,0.00,,,0.13,Wunderground v.1.15,2013-05-01 01:35:00,
2013-04-30 21:45:00,69.1,67.0,30.02,SE,142,1.0,6.0,93,0.00,,,0.13,Wunderground v.1.15,2013-05-01 01:45:00,
2013-04-30 21:50:00,69.0,66.9,30.02,SE,134,1.0,1.0,93,0.00,,,0.13,Wunderground v.1.15,2013-05-01 01:50:00,
2013-04-30 22:00:00,69.1,67.3,30.03,SSE,148,0.0,0.0,94,0.00,,,0.13,Wunderground v.1.15,2013-05-01 02:00:00,
2013-04-30 22:05:00,69.1,67.3,30.02,SE,134,0.0,3.0,94,0.00,,,0.13,Wunderground v.1.15,2013-05-01 02:05:00,
2013-04-30 22:15:00,69.2,67.4,30.02,SE,137,2.0,14.0,94,0.00,,,0.13,Wunderground v.1.15,2013-05-01 02:15:00,
2013-04-30 22:25:00,69.2,67.4,30.02,SE,127,0.0,14.0,94,0.00,,,0.13,Wunderground v.1.15,2013-05-01 02:25:00,
2013-04-30 22:35:00,69.0,67.2,30.02,NNE,25,0.0,0.0,94,0.00,,,0.13,Wunderground v.1.15,2013-05-01 02:35:00,
2013-04-30 22:40:00,68.9,67.1,30.02,NNE,31,0.0,0.0,94,0.00,,,0.13,Wunderground v.1.15,2013-05-01 02:40:00,
2013-04-30 22:50:00,68.6,66.8,30.02,ESE,109,0.0,0.0,94,0.00,,,0.13,Wunderground v.1.15,2013-05-01 02:50:00,
2013-04-30 23:00:00,68.2,66.4,30.02,ESE,108,0.0,0.0,94,0.00,,,0.13,Wunderground v.1.15,2013-05-01 03:00:00,
2013-04-30 23:10:00,68.2,66.7,30.02,ESE,106,0.0,8.0,95,0.00,,,0.13,Wunderground v.1.15,2013-05-01 03:10:00,
2013-04-30 23:20:00,68.1,66.6,30.02,ESE,103,0.0,8.0,95,0.00,,,0.13,Wunderground v.1.15,2013-05-01 03:20:00,
2013-04-30 23:30:00,68.0,66.5,30.03,NE,50,0.0,0.0,95,0.00,,,0.13,Wunderground v.1.15,2013-05-01 03:30:00,
2013-04-30 23:40:00,67.7,66.2,30.03,ENE,59,0.0,0.0,95,0.00,,,0.13,Wunderground v.1.15,2013-05-01 03:40:00,
2013-04-30 23:49:00,67.7,66.2,30.02,NE,53,0.0,0.0,95,0.00,,,0.13,Wunderground v.1.15,2013-05-01 03:49:00,
2013-04-30 23:55:00,67.4,65.9,30.02,NE,52,0.0,0.0,95,0.00,,,0.13,Wunderground v.1.15,2013-05-01 03:55:00,